TimeEST,TemperatureF,Dew PointF,Humidity,Sea Level PressureIn,VisibilityMPH,Wind Direction,Wind SpeedMPH,Gust SpeedMPH,PrecipitationIn,Events,Conditions,WindDirDegrees,DateUTC
12:54 AM,19.9,18.0,92,30.16,10.0,SSW,3.5,-,N/A,,Clear,200,2013-02-04 05:54:00
1:54 AM,19.0,15.1,85,30.13,10.0,Calm,Calm,-,N/A,,Clear,0,2013-02-04 06:54:00
2:54 AM,18.0,15.1,88,30.16,10.0,Calm,Calm,-,N/A,,Clear,0,2013-02-04 07:54:00
3:54 AM,17.1,15.1,92,30.12,10.0,SSE,4.6,-,N/A,,Clear,150,2013-02-04 08:54:00
5:54 AM,15.1,12.0,88,30.14,9.0,Calm,Calm,-,N/A,,Clear,0,2013-02-04 10:54:00
6:54 AM,17.1,15.1,92,30.11,10.0,SE,6.9,-,N/A,,Mostly Cloudy,130,2013-02-04 11:54:00
7:54 AM,19.9,17.1,89,30.09,9.0,SE,6.9,-,N/A,,Overcast,140,2013-02-04 12:54:00
8:54 AM,24.1,19.0,81,30.07,10.0,SSE,11.5,-,N/A,,Overcast,150,2013-02-04 13:54:00
9:54 AM,28.0,21.9,78,30.05,10.0,South,13.8,-,N/A,,Scattered Clouds,170,2013-02-04 14:54:00
10:54 AM,30.0,24.1,79,30.01,10.0,South,19.6,25.3,N/A,,Overcast,170,2013-02-04 15:54:00
11:54 AM,33.1,24.1,70,29.98,10.0,South,16.1,-,N/A,,Mostly Cloudy,170,2013-02-04 16:54:00
12:54 PM,37.0,25.0,62,29.94,10.0,SSW,12.7,-,N/A,,Overcast,200,2013-02-04 17:54:00
1:54 PM,37.9,27.0,65,29.90,10.0,South,11.5,-,N/A,,Overcast,190,2013-02-04 18:54:00
2:54 PM,39.9,28.0,63,29.87,10.0,South,10.4,-,N/A,,Overcast,190,2013-02-04 19:54:00
3:54 PM,43.0,30.9,62,29.87,10.0,SSW,6.9,-,N/A,,Overcast,210,2013-02-04 20:54:00
4:54 PM,45.0,30.9,58,29.88,10.0,WSW,10.4,-,0.00,Rain,Light Rain,240,2013-02-04 21:54:00
5:54 PM,44.1,32.0,63,29.88,10.0,West,15.0,20.7,0.00,Rain,Light Rain,260,2013-02-04 22:54:00
6:29 PM,42.8,33.8,70,29.87,10.0,West,17.3,25.3,0.01,Rain,Light Rain,270,2013-02-04 23:29:00
6:54 PM,42.1,35.1,76,29.90,10.0,WSW,10.4,-,0.01,Rain,Light Rain,250,2013-02-04 23:54:00
7:41 PM,41.0,37.4,87,29.88,10.0,SW,9.2,-,0.04,Rain,Light Rain,230,2013-02-05 00:41:00
7:54 PM,41.0,37.9,89,29.90,8.0,SW,11.5,-,0.05,Rain,Light Rain,220,2013-02-05 00:54:00
8:54 PM,41.0,39.0,93,29.90,10.0,SSW,10.4,-,0.03,,Overcast,210,2013-02-05 01:54:00
9:54 PM,41.0,39.9,96,29.91,10.0,WSW,11.5,-,N/A,,Overcast,240,2013-02-05 02:54:00
10:54 PM,42.1,39.9,92,29.91,10.0,WSW,9.2,-,N/A,,Overcast,250,2013-02-05 03:54:00
11:54 PM,42.1,39.9,92,29.90,10.0,WSW,6.9,-,N/A,,Overcast,250,2013-02-05 04:54:00